Simultaneous Nadir Overpasses (SNOs) Predictions

Prediction of SNOs between TERRA and METOP-C Satellite Orbit:

Table of predicted SNOs for the next 14.0 days since TLE Epoch: 7/24/2021
Index Date (TERRA) Time (TERRA) Lat,Lon (TERRA) SZA (TERRA ) Date (METOP-C) Time (METOP-C) Lat,Lon (METOP-C) SZA (METOP-C ) Distance(km) Time Diff (sec)
1 07/24/2021 13:19:19 -81.29,-154.19 115.91 07/24/2021 13:18:30 -81.29,-154.12 115.93 1.14 49
2 07/24/2021 14:08:45 81.30, 13.57 64.12 07/24/2021 14:09:10 81.30, 13.50 64.12 1.24 25
3 07/27/2021 08:53:31 -81.29, -87.77 115.30 07/27/2021 08:52:50 -81.29, -87.77 115.32 0.26 41
4 07/27/2021 09:42:57 81.29, 79.96 64.73 07/27/2021 09:43:30 81.30, 79.87 64.73 1.58 33
5 07/30/2021 04:27:44 -81.29, -21.38 114.65 07/30/2021 04:27:11 -81.29, -21.44 114.67 1.07 33
6 07/30/2021 05:17:09 81.31, 146.70 65.43 07/30/2021 05:17:50 81.30, 146.62 65.44 1.62 41
7 08/02/2021 00:01:56 -81.30, 45.34 113.90 08/02/2021 00:01:31 -81.29, 45.26 113.93 1.54 25
8 08/02/2021 00:51:22 81.30,-146.98 66.12 08/02/2021 00:52:11 81.30,-147.05 66.13 1.12 49
9 08/04/2021 19:36:08 -81.29, 111.64 113.18 08/04/2021 19:35:51 -81.29, 111.55 113.20 1.58 17



Historial Predications of SNOs between TERRA and METOP-C
